Regional Weather Roundup
Issued by NWS Newport/Morehead, NC

Current Version | Previous Version | Graphics & Text | Print | Product List | Glossary Off
Versions: 1 2 3 4 5 6 7 8 9 10 11 12 13 14 15 16 17 18 19 20 21 22 23 24 25 26 27 28 29 30 31 32 33 34 35 36 37 38 39 40 41 42 43 44 45 46 47 48 49 50

000
ASUS42 KMHX 270525
RWRMHX
WEATHER ROUNDUP FOR EASTERN NORTH CAROLINA
NATIONAL WEATHER SERVICE NEWPORT/MOREHEAD CITY NC
100 AM EDT TUE JUN 27 2017

NOTE: "FAIR" INDICATES FEW OR NO CLOUDS BELOW 12,000 FEET
WITH NO SIGNIFICANT WEATHER AND/OR OBSTRUCTIONS TO VISIBILITY

NCZ015>017-031-032-045>047-102-103-270600-
NORTH COAST

CITY           SKY/WX    TMP DP  RH WIND       PRES   REMARKS
EDENTON        PTCLDY    75  64  68 CALM      30.03F
ELIZABETH CITY CLOUDY    69  63  81 S5        30.03F
KITTY HAWK     CLEAR     69  63  80 CALM      30.02F
MANTEO         CLEAR     66  63  88 CALM      30.03F

$$

NCZ045>047-081-094-103-104-270600-
CENTRAL COAST

CITY           SKY/WX    TMP DP  RH WIND       PRES   REMARKS
FRISCO         PTCLDY    68  64  87 CALM      30.03F

$$

NCZ095-097-098-100-101-270600-
SOUTHERN COAST

CITY           SKY/WX    TMP DP  RH WIND       PRES   REMARKS
BEAUFORT       PTCLDY    69  69 100 CALM      30.03S
CEDAR ISLAND   NOT AVBL
JACKSONVILLE   CLEAR     68  68 100 CALM      30.02F
PINEY ISLAND   PTCLDY   N/A N/A N/A CALM      30.03S
WILMINGTON     CLEAR     68  66  93 CALM      30.03F


$$

NCZ011>013-027>030-043-044-078>080-089-090>093-098-270600-
COASTAL PLAIN

CITY           SKY/WX    TMP DP  RH WIND       PRES   REMARKS
AHOSKIE          N/A     64  63  96 CALM      30.03F
CLINTON        PTCLDY    67  65  94 CALM      30.03F
ELIZABETHTOWN  NOT AVBL
GOLDSBORO      CLOUDY    69  65  86 CALM      30.01F
GREENVILLE     PTCLDY    70  63  78 CALM      30.04F
HAVELOCK       CLEAR     69  65  86 CALM      30.04S
KENANSVILLE    PTCLDY    64  63  94 CALM      30.04S
KINSTON        PTCLDY    67  64  88 CALM      30.04S
NEW BERN       PTCLDY    67  66  97 CALM      30.04F
RICHLANDS      PTCLDY    65  64  97 CALM      30.04
ROCKY MOUNT    CLOUDY    68  62  81 CALM      30.03F
WASHINGTON     PTCLDY   N/A N/A N/A CALM      30.03F
WHITEVILLE     CLEAR     65  64  94 CALM      30.03F

$$

AMZ130-135-150-152-154-156-158-170-250-252-270-ANZ085-086-088-633-658-670-270600-
MARINE OBSERVATIONS

STATION/POSITION TIME  TEMP    WIND        PRES    WAVE   SWELL
                       AIR SEA DIR/SP/G            HT/PER HT/PER
                 (UTC) (F)     (DEG/KT/KT) (MB)    (FT/S) (FT/S)
CHESAPEAKE LIGHT NOT AVBL
64 E VA BEACH    0450   73 74  110/  4/  6 1017.2    2/ 8   2/ 8
DUCK             0500   72 70  150/  4/  5 1016.5
2 E DUCK         NOT AVBL
OREGON INLET     0500   72 78   CALM  /  1 1016.8
13E OREGON INLT  0448      73                N/A     2/ 7   2/ 7
HATTERAS CG      0500   74 78  160/  2/  2 1016.7
DIAMOND BUOY     0450   77 81   CALM  /  2 1016.7    2/ 7   2/ 7
CAPE LOOKOUT     0500   75        CALM     1016.4
BEAUFORT LAB     0500   74 78   CALM  /  1 1016.1
30 SE NEW RVR IN 0508   76 81   50/  4/  6 1016.7
30 SE NEW RVR IN 0443      81                N/A     2/ 8
27 SE WRIGHTSVLE 0508   77 80   40/  4/  8 1015.9
5 SE WRIGHTSVLE  0508   77 79   CALM  /  2 1016.5
225 S CAPE HAT   0450   79 80  170/ 12/ 14 1016.7    3/ 6   2/ 8
41 SE CHARLESTON 0510   78 81   90/  6/  8 1016.5

$$



USA.gov is the U.S. government's official web portal to all federal, state and local government web resources and services.